Location: Krakow
(50.0830°N, 19.9170°E)
Time: 12:52:01
(UTC+01:00)

Vanguard 3 - All Passes

Search period start: 15 March 2026 00:00
Search period end: 25 March 2026 00:00
Orbit: 507 x 3205 km, 33.4° (Epoch: 14 March)

Date Brightness Start Highest point End Pass type
(mag) Time Alt. Az. Time Alt. Az. Time Alt. Az.
15 Mar - 06:35:18 10° S 06:46:33 25° SE 07:00:13 10° E daylight
15 Mar - 08:43:36 10° SW 08:58:51 42° SSE 09:15:59 10° ESE daylight
15 Mar - 10:55:29 10° WSW 11:12:36 45° S 11:28:48 10° SE daylight
15 Mar - 13:10:06 10° W 13:25:36 32° SSW 13:38:33 10° SSE daylight
15 Mar - 15:31:21 10° WSW 15:36:16 12° SW 15:40:47 10° SW daylight
16 Mar - 05:17:55 10° SSE 05:24:37 15° SE 05:32:22 10° ESE visible
16 Mar - 07:22:27 10° SSW 07:35:28 34° SSE 07:51:31 10° E daylight
16 Mar - 09:32:34 10° WSW 09:48:37 45° S 10:05:56 10° ESE daylight
16 Mar - 11:45:32 10° W 12:02:19 40° SSW 12:17:37 10° SE daylight
16 Mar - 14:01:46 10° W 14:14:24 22° SW 14:25:11 10° S daylight
17 Mar - 06:02:44 10° S 06:12:55 24° SE 06:25:47 10° E daylight
17 Mar - 08:10:38 10° SW 08:24:50 41° SSE 08:42:05 10° ESE daylight
17 Mar - 10:22:02 10° WSW 10:38:29 45° S 10:55:25 10° ESE daylight
17 Mar - 12:36:06 10° W 12:51:41 32° SSW 13:05:35 10° SSE daylight
17 Mar - 14:56:20 10° WSW 15:02:45 13° SW 15:08:39 10° SSW daylight
18 Mar - 04:45:57 10° SSE 04:51:15 13° SE 04:57:22 10° ESE visible
18 Mar - 06:49:48 10° SSW 07:01:42 33° SSE 07:17:14 10° E daylight
18 Mar - 08:59:30 10° WSW 09:14:32 45° S 09:32:09 10° ESE daylight
18 Mar - 11:11:55 10° WSW 11:28:14 40° SSW 11:44:18 10° SE daylight
18 Mar - 13:27:36 10° W 13:40:37 23° SW 13:52:17 10° S daylight
19 Mar - 05:30:24 10° S 05:39:26 23° SE 05:51:13 10° E daylight
19 Mar - 07:37:55 10° SW 07:50:57 40° SSE 08:07:56 10° ESE daylight
19 Mar - 09:48:49 10° WSW 10:04:22 44° S 10:21:46 10° ESE daylight
19 Mar - 12:02:20 10° W 12:17:41 32° SSW 12:32:22 10° SSE daylight
19 Mar - 14:21:46 10° WSW 14:29:07 13° SW 14:35:59 10° SSW daylight
20 Mar - 04:14:35 10° SE 04:18:03 11° SE 04:21:55 10° ESE visible
20 Mar - 06:17:22 10° SSW 06:28:06 32° SSE 06:42:47 10° E daylight
20 Mar - 08:26:39 10° WSW 08:40:32 44° S 08:58:07 10° ESE daylight
20 Mar - 10:38:34 10° WSW 10:54:08 40° SSW 11:10:45 10° SE daylight
20 Mar - 12:53:41 10° W 13:06:45 23° SW 13:19:06 10° S daylight
21 Mar - 04:58:16 10° S 05:06:08 21° SE 05:16:31 10° E visible
21 Mar - 07:05:23 10° SW 07:17:13 39° SSE 07:33:34 10° ESE daylight
21 Mar - 09:15:51 10° WSW 09:30:18 43° S 09:47:50 10° ESE daylight
21 Mar - 11:28:50 10° W 11:43:39 32° SSW 11:58:52 10° SSE daylight
21 Mar - 13:47:35 10° WSW 13:55:23 14° SW 14:02:53 10° SSW daylight
22 Mar - 05:45:07 10° SSW 05:54:40 30° SSE 06:08:12 10° E daylight
22 Mar - 07:54:01 10° WSW 08:06:42 43° S 08:23:52 10° ESE daylight
22 Mar - 10:05:28 10° WSW 10:20:04 39° SSW 10:36:55 10° SE daylight
22 Mar - 12:20:01 10° W 12:32:50 23° SW 12:45:38 10° S daylight
23 Mar - 04:26:21 10° S 04:33:00 19° SE 04:41:46 10° ESE visible
23 Mar - 06:33:02 10° SW 06:43:40 37° SSE 06:59:04 10° ESE daylight
23 Mar - 08:43:06 10° WSW 08:56:23 42° S 09:13:41 10° ESE daylight
23 Mar - 10:55:35 10° W 11:09:38 32° SSW 11:25:05 10° SSE daylight
23 Mar - 13:13:46 10° WSW 13:21:37 14° SW 13:29:24 10° SSW daylight
24 Mar - 05:13:03 10° SSW 05:21:26 27° SSE 05:33:34 10° E daylight
24 Mar - 07:21:34 10° WSW 07:33:02 41° S 07:49:25 10° ESE daylight
24 Mar - 09:32:35 10° WSW 09:46:06 38° SSW 10:02:50 10° SE daylight
24 Mar - 11:46:40 10° W 11:58:54 23° SW 12:11:51 10° S daylight
